Location: Coupvray
(48.8929°N, 2.7967°E)
Time: 10:59:28
(UTC+00:00)

Meteor 1-5 Rocket - Pass Details

Date: 14 July 2020
Orbit: 790 x 915 km, 81.2° (Epoch: 05 August)

Event Time Altitude Azimuth Distance (km) Brightness Sun altitude
Exits shadow 01:55:46 20° 191° (S) 1,905 5.5 -14.5°
Maximum altitude 01:59:53 88° 277° (W) 886 4.3 -14.2°
Drops below altitude 10° 02:05:48 10° 12° (NNE) 2,582 7.9 -13.7°
Sets 02:08:18 0° 12° (NNE) 3,540 8.9 -13.5°
